Location: Newark
(43.0000°N, 1.6781°W)
Time: 09:45:24
(UTC+00:00)

Explorer 7 - Pass Details

Date: 25 April 2021
Orbit: 484 x 677 km, 50.3° (Epoch: 07 May)

Event Time Altitude Azimuth Distance (km) Brightness Sun altitude
Rises 00:11:44 0° 298° (WNW) 2,787 10.7 -33.8°
Enters shadow 00:12:35 - 298° (WNW) 2,450 10.4 -33.8°
Reaches altitude 10° 00:13:57 10° 296° (WNW) 1,918 - -33.8°
Maximum altitude 00:18:18 63° 215° (SW) 688 - -33.7°
Drops below altitude 10° 00:22:55 10° 135° (SE) 2,025 - -33.6°
Sets 00:25:19 0° 132° (SE) 2,957 - -33.6°
